TimeCST,TemperatureF,Dew PointF,Humidity,Sea Level PressureIn,VisibilityMPH,Wind Direction,Wind SpeedMPH,Gust SpeedMPH,PrecipitationIn,Events,Conditions,WindDirDegrees,DateUTC
12:28 AM,28.4,26.6,93,29.58,2.5,Calm,Calm,-,N/A,,Clear,0,2012-11-22 06:28:00
12:36 AM,28.4,26.6,93,29.58,6.0,Calm,Calm,-,N/A,,Clear,0,2012-11-22 06:36:00
12:53 AM,28.0,26.1,92,29.62,3.0,Calm,Calm,-,N/A,,Clear,0,2012-11-22 06:53:00
1:53 AM,28.9,27.0,92,29.60,7.0,Calm,Calm,-,N/A,,Clear,0,2012-11-22 07:53:00
2:53 AM,28.0,26.1,92,29.58,7.0,Calm,Calm,-,N/A,,Clear,0,2012-11-22 08:53:00
3:53 AM,27.0,25.0,92,29.57,5.0,Calm,Calm,-,N/A,,Clear,0,2012-11-22 09:53:00
4:53 AM,26.1,23.0,88,29.57,7.0,NW,3.5,-,N/A,,Clear,320,2012-11-22 10:53:00
5:08 AM,26.6,24.8,93,29.52,5.0,Calm,Calm,-,N/A,,Scattered Clouds,0,2012-11-22 11:08:00
5:53 AM,27.0,25.0,92,29.58,9.0,Calm,Calm,-,N/A,,Scattered Clouds,0,2012-11-22 11:53:00
6:53 AM,28.0,25.0,88,29.59,9.0,NW,3.5,-,N/A,,Clear,320,2012-11-22 12:53:00
7:53 AM,30.0,28.0,92,29.59,5.0,Calm,Calm,-,N/A,,Mostly Cloudy,0,2012-11-22 13:53:00
8:53 AM,33.1,30.0,89,29.60,7.0,Calm,Calm,-,N/A,,Mostly Cloudy,0,2012-11-22 14:53:00
9:53 AM,43.0,36.0,76,29.61,10.0,NW,12.7,-,N/A,,Partly Cloudy,310,2012-11-22 15:53:00
10:53 AM,42.1,34.0,73,29.64,10.0,NW,13.8,-,N/A,,Clear,310,2012-11-22 16:53:00
11:48 AM,42.8,33.8,70,29.60,10.0,NW,17.3,-,N/A,,Mostly Cloudy,320,2012-11-22 17:48:00
11:53 AM,42.1,33.1,70,29.65,10.0,NW,17.3,-,N/A,,Overcast,320,2012-11-22 17:53:00
12:32 PM,37.4,32.0,81,29.63,10.0,WNW,15.0,20.7,0.00,Rain,Light Rain,300,2012-11-22 18:32:00
12:53 PM,36.0,30.9,82,29.70,10.0,WNW,10.4,-,0.00,Rain,Light Rain,290,2012-11-22 18:53:00
1:29 PM,35.6,30.2,81,29.64,10.0,WNW,12.7,-,0.00,,Overcast,290,2012-11-22 19:29:00
1:53 PM,35.1,30.9,85,29.71,10.0,WNW,15.0,21.9,0.00,,Overcast,300,2012-11-22 19:53:00
2:53 PM,33.1,28.9,85,29.73,9.0,WNW,13.8,23.0,0.00,Rain,Light Rain,290,2012-11-22 20:53:00
3:27 PM,32.0,28.4,87,29.68,2.0,WNW,11.5,-,0.01,Snow,Light Snow,300,2012-11-22 21:27:00
3:31 PM,32.0,28.4,87,29.69,1.2,WNW,12.7,-,0.01,Snow,Light Snow,290,2012-11-22 21:31:00
3:46 PM,32.0,28.4,87,29.69,2.0,NW,15.0,21.9,0.02,Snow,Light Snow,310,2012-11-22 21:46:00
3:53 PM,30.9,28.0,89,29.75,2.5,WNW,10.4,21.9,0.02,Snow,Light Snow,290,2012-11-22 21:53:00
4:04 PM,30.2,26.6,86,29.69,5.0,WNW,13.8,18.4,0.00,,Overcast,300,2012-11-22 22:04:00
4:14 PM,30.2,26.6,86,29.70,4.0,WNW,12.7,19.6,0.00,Snow,Light Snow,290,2012-11-22 22:14:00
4:36 PM,30.2,26.6,86,29.72,1.8,West,10.4,-,0.00,Snow,Light Snow,280,2012-11-22 22:36:00
4:53 PM,30.0,26.1,85,29.78,1.5,NW,17.3,24.2,0.00,Snow,Light Snow,310,2012-11-22 22:53:00
4:59 PM,28.4,24.8,86,29.71,2.5,NW,18.4,26.5,0.00,Snow,Light Snow,310,2012-11-22 22:59:00
5:02 PM,28.4,24.8,86,29.71,3.0,NW,20.7,26.5,0.00,Snow,Light Snow,310,2012-11-22 23:02:00
5:24 PM,28.4,24.8,86,29.72,2.0,WNW,17.3,25.3,0.00,Snow,Light Snow,300,2012-11-22 23:24:00
5:31 PM,28.4,24.8,86,29.72,1.2,NW,16.1,24.2,0.00,Snow,Light Snow,310,2012-11-22 23:31:00
5:38 PM,28.4,24.8,86,29.73,1.0,WNW,17.3,24.2,0.00,Snow,Light Snow,300,2012-11-22 23:38:00
5:53 PM,28.0,23.0,81,29.79,1.2,WNW,20.7,25.3,0.00,Snow,Light Snow,300,2012-11-22 23:53:00
6:53 PM,26.1,21.9,84,29.79,1.2,WNW,13.8,17.3,0.01,Snow,Light Snow,300,2012-11-23 00:53:00
7:53 PM,25.0,21.0,85,29.80,1.5,WNW,12.7,-,0.01,Snow,Light Snow,290,2012-11-23 01:53:00
8:53 PM,26.1,21.0,81,29.81,1.8,WNW,12.7,-,0.01,Snow,Light Snow,290,2012-11-23 02:53:00
9:01 PM,26.6,21.2,80,29.75,2.0,WNW,13.8,-,0.00,Snow,Light Snow,300,2012-11-23 03:01:00
9:20 PM,26.6,21.2,80,29.75,1.8,WNW,17.3,26.5,0.00,Snow,Light Snow,290,2012-11-23 03:20:00
9:53 PM,26.1,21.9,84,29.81,2.0,WNW,19.6,26.5,0.00,Snow,Light Snow,300,2012-11-23 03:53:00
10:07 PM,26.6,21.2,80,29.76,3.0,NW,18.4,26.5,0.00,Snow,Light Snow,310,2012-11-23 04:07:00
10:13 PM,26.6,21.2,80,29.76,2.5,NW,21.9,29.9,0.00,Snow,Light Snow,320,2012-11-23 04:13:00
10:45 PM,26.6,21.2,80,29.77,1.8,NW,21.9,28.8,0.00,Snow,Light Snow,310,2012-11-23 04:45:00
10:53 PM,25.0,21.0,85,29.82,1.2,NW,21.9,28.8,0.00,Snow,Light Snow,320,2012-11-23 04:53:00
11:05 PM,24.8,19.4,80,29.78,1.2,NW,19.6,27.6,0.00,Snow,Light Snow,320,2012-11-23 05:05:00
11:53 PM,23.0,19.0,85,29.86,1.0,NNW,19.6,32.2,0.01,Snow,Light Snow,330,2012-11-23 05:53:00